Temperature
16 16 16 16 16 16 16 17 17 17 17 17 17 17 17 17 17 17 17 17 17 17 17 17 17 17 16 16 16 16 16 16 16 15 15 15 15 15 15 15 14 14 14
16 16 16 16 16 16 16 17 17 17 17 17 17 17 17 17 17 17 17 17 17 17 17 16 17 16 16 16 16 16 16 16 15 15 15 15 15 14 14 14 14 14 14
16 16 16 16 16 16 16 16 16 16 17 17 17 17 17 17 17 17 17 17 17 16 16 16 16 16 16 16 16 16 15 15 15 15 15 15 14 14 14 14 14 14 14
16 16 16 16 16 16 16 16 16 16 16 16 16 16 16 16 16 16 16 16 16 16 16 16 16 16 16 16 16 15 15 15 15 15 15 15 14 14 14 14 14 14 14
16 16 16 16 16 16 16 16 16 16 16 16 16 16 16 16 16 16 16 16 16 16 16 16 16 16 16 15 15 15 15 15 15 15 15 14 14 14 14 14 14 14 14
15 16 16 16 16 16 16 16 16 16 16 16 16 16 16 16 16 16 16 16 16 16 16 16 15 15 15 15 15 15 15 15 15 15 14 14 14 14 14 14 14 14 14
15 15 15 16 16 16 16 16 16 16 16 16 16 16 16 16 16 16 16 16 16 16 15 15 15 15 15 15 15 15 15 15 15 14 14 14 14 14 14 14 14 14 13
15 15 15 15 15 15 15 15 15 15 15 15 15 15 15 15 15 15 15 15 15 15 15 15 15 15 15 15 15 15 15 15 14 14 14 14 14 14 14 13 13 13 13
15 15 15 15 15 15 15 15 15 15 15 15 15 15 15 15 15 15 15 15 15 15 15 15 15 15 15 15 15 15 14 14 14 14 14 14 14 14 13 13 13 13 13
14 15 15 15 14 14 14 14 14 14 14 14 14 14 14 14 14 14 14 14 14 14 14 14 14 14 14 14 14 14 14 14 14 14 14 14 13 13 13 13 13 13 13
14 14 14 14 14 14 14 14 14 14 14 14 14 14 14 14 14 14 14 14 14 14 14 14 14 14 14 14 14 14 14 14 14 14 14 14 13 13 13 13 13 13 13
14 14 13 13 13 13 13 13 13 13 13 13 14 14 14 14 14 14 14 14 14 14 14 14 14 14 14 14 14 14 14 14 13 13 13 13 13 13 13 13 13 13 13
13 13 13 13 13 13 13 13 13 13 13 13 13 13 13 13 13 13 13 13 13 13 13 13 13 13 13 13 13 13 13 13 13 13 13 13 13 13 13 13 13 13 13
13 13 13 13 12 12 12 12 12 13 13 13 13 13 13 13 13 13 13 13 13 13 13 13 13 13 13 13 13 13 13 13 13 13 13 13 12 12 12 13 12 12 12
13 12 12 12 12 12 12 12 12 12 12 12 12 12 12 12 12 12 12 12 12 12 12 12 12 12 12 12 12 12 12 12 12 12 12 12 12 12 12 12 12 12 12
12 12 12 12 12 12 12 12 12 12 12 11 11 11 11 11 11 11 11 11 11 11 11 11 11 11 11 11 12 12 12 12 12 12 12 12 12 12 12 12 12 12 12
12 12 12 12 11 11 11 11 11 11 11 11 11 11 11 11 11 11 11 11 11 11 10 10 10 11 11 11 11 11 11 11 11 11 11 11 11 11 11 11 11 11 11
12 12 12 11 11 11 11 11 11 11 11 11 11 10 10 10 10 10 10 10 10 10 10 10 10 10 10 10 10 10 10 10 10 10 10 11 11 11 11 11 11 11 11
12 12 11 11 11 11 11 10 10 10 10 10 10 10 10 10 10 10 9 9 9 9 9 9 9 9 9 9 9 9 10 10 10 10 10 10 10 10 10 10 10 10 11
12 11 11 11 11 10 10 10 10 10 10 10 10 9 9 9 9 9 9 9 9 8 8 8 8 8 8 8 8 8 9 9 9 9 9 9 9 10 10 10 10 10 10
11 11 11 11 10 10 10 10 10 9 9 9 9 9 9 9 9 8 8 8 8 8 8 7 7 7 8 7 7 7 8 8 8 9 9 9 9 9 9 9 9 9 9
11 11 10 10 10 10 10 9 9 9 9 9 9 9 8 8 8 8 8 8 7 7 7 7 7 7 7 7 6 6 6 6 7 7 8 8 8 8 8 8 9 9 9
11 10 10 10 10 9 9 9 9 9 9 8 8 8 8 8 8 7 7 7 7 7 6 6 6 6 6 6 6 5 5 5 5 6 7 7 7 7 7 8 8 8 8
10 10 10 10 10 9 9 9 8 8 8 8 8 8 7 7 7 7 7 7 6 6 6 6 6 6 5 5 5 5 5 5 4 4 5 6 6 7 7 7 7 7 8
10 10 10 10 9 9 9 8 8 8 8 7 7 7 7 7 7 6 6 6 6 6 6 5 5 5 5 5 5 4 4 4 4 4 4 5 5 6 6 6 6 7 7
10 10 9 9 9 9 8 8 8 8 7 7 7 7 6 6 6 6 6 6 5 5 5 5 5 5 5 5 4 4 4 4 4 4 3 4 4 5 5 6 6 6 6
Wind_Speed
2 3 1 6 7 8 8 8 9 9 9 8 8 8 8 7 7 7 6 6 6 6 6 5 5 5 5 5 5 5 5 5 5 6 6 7 7 7 7 7 7 7 9
2 1 4 7 8 8 9 9 9 9 9 8 8 7 7 6 6 6 5 5 4 4 4 4 4 4 4 4 4 5 5 4 5 5 6 6 7 7 7 7 8 7 8
2 2 5 8 8 9 9 9 9 9 9 9 8 7 7 6 6 5 4 4 4 4 3 3 3 3 3 3 4 4 4 4 4 5 5 4 6 7 7 7 8 8 8
3 4 5 9 9 9 9 10 10 9 9 9 8 8 7 7 6 5 4 4 3 2 2 3 3 3 3 3 3 3 4 4 4 5 4 3 4 6 7 8 8 8 8
4 5 6 9 9 9 9 9 9 9 9 9 9 8 8 7 7 6 6 5 4 3 2 2 2 2 3 3 3 2 3 4 4 4 3 3 4 6 7 8 8 8 8
5 6 7 9 9 9 10 10 10 9 9 9 9 8 8 8 8 7 7 6 5 5 4 3 2 2 2 2 2 2 2 3 4 4 3 3 4 6 6 7 8 8 9
5 6 8 9 9 10 10 10 10 10 10 10 10 9 9 9 9 9 8 7 7 6 5 4 3 2 1 1 1 2 2 2 4 4 4 4 5 6 6 7 8 9 10
5 7 8 9 9 9 10 10 11 10 10 11 10 10 10 10 9 9 9 8 7 7 7 5 4 3 2 1 1 1 1 1 3 4 4 5 7 7 8 8 8 9 10
6 6 8 9 9 9 9 10 10 10 10 11 11 11 10 10 10 9 10 9 8 8 7 7 6 4 3 2 2 1 1 1 2 3 4 5 8 9 9 9 9 10 10
5 5 6 8 9 9 9 9 10 10 10 11 11 11 11 10 10 10 9 9 9 8 8 8 8 7 5 4 3 2 1 1 2 3 4 5 8 9 10 10 10 11 11
4 4 4 5 7 7 8 9 9 9 10 10 10 10 10 9 9 9 10 9 9 8 8 8 8 7 6 5 4 4 2 0 2 2 4 7 8 9 10 11 11 12 13
2 2 2 3 4 6 6 8 8 8 9 9 9 9 9 8 8 8 9 9 9 9 7 7 7 7 6 5 4 4 2 1 1 3 5 8 10 11 11 11 11 12 13
3 2 1 2 3 4 4 5 6 6 7 8 8 8 8 8 7 8 7 7 7 7 6 6 6 6 5 4 3 3 3 1 2 3 5 8 10 11 11 12 13 12 12
4 3 1 2 2 3 4 3 4 4 4 5 6 7 6 4 4 4 4 5 5 5 4 4 3 4 4 4 3 2 2 2 3 4 5 8 10 11 12 12 13 13 13
4 4 3 2 2 2 2 2 3 3 3 4 5 6 5 3 2 2 3 4 4 4 3 2 2 3 3 3 3 2 3 3 4 4 5 8 10 11 12 13 14 14 15
6 5 3 3 3 2 2 1 1 2 3 3 4 4 4 3 2 1 2 2 3 4 3 2 2 2 2 2 3 3 3 3 4 5 6 7 9 11 12 13 14 15 15
6 5 4 4 3 3 2 1 1 1 2 2 2 4 4 3 2 1 1 2 3 4 4 3 3 2 2 3 3 4 3 3 4 5 6 6 7 10 12 13 14 15 15
6 5 5 4 3 3 2 1 0 1 1 1 2 3 3 3 2 1 1 2 3 4 2 2 2 2 3 3 3 4 4 4 5 5 5 6 6 7 10 13 15 16 16
7 6 5 3 4 3 2 1 0 0 1 1 1 2 3 3 3 2 1 2 3 2 2 2 2 2 3 4 4 4 4 4 5 6 5 5 6 7 8 10 13 15 16
5 5 5 3 3 2 1 1 0 1 1 1 1 2 2 2 3 2 2 2 2 2 2 2 3 3 3 4 5 5 4 5 5 5 5 5 5 6 7 8 9 11 14
4 5 5 4 3 2 1 1 1 2 2 2 2 3 3 3 2 2 2 2 2 2 3 3 3 3 3 2 2 4 4 5 5 4 4 4 5 6 6 7 7 8 9
6 5 5 5 4 3 2 2 2 2 2 3 3 3 4 4 4 3 2 3 3 2 3 3 2 2 2 1 1 2 4 4 3 4 4 5 6 5 6 8 7 8 8
6 7 6 5 5 4 3 1 0 1 1 2 2 3 3 4 5 4 4 4 4 3 4 4 4 4 3 3 2 2 2 4 5 4 4 5 5 5 6 6 8 9 9
7 6 5 5 4 4 3 3 3 2 3 4 3 4 5 5 6 6 5 5 5 5 5 5 5 4 4 4 3 4 5 4 4 5 4 4 6 7 7 7 8 9 9
5 5 4 4 4 4 4 4 4 4 4 3 3 5 5 5 6 6 6 6 6 6 7 7 6 6 5 6 5 4 4 4 5 6 8 6 6 5 6 7 7 8 9
3 3 3 4 4 4 4 4 5 6 5 5 5 5 5 5 5 6 7 6 7 7 7 7 7 8 7 7 6 6 5 5 5 6 8 9 8 7 6 6 7 7 9
Wind_Direction
256 284 64 92 90 89 87 87 82 80 83 85 88 94 97 100 102 103 105 109 113 114 115 114 113 121 126 124 123 126 128 135 141 142 140 141 139 138 133 128 122 115 120
180 302 90 94 91 84 82 81 80 79 79 81 82 85 90 94 98 101 102 107 115 116 116 117 115 113 118 123 123 120 123 132 140 141 138 141 148 146 142 139 137 132 127
114 81 88 92 89 85 81 77 73 71 72 73 75 76 79 86 91 92 93 99 110 115 116 117 114 113 118 123 129 130 131 130 134 138 135 136 155 160 158 155 153 149 141
93 79 85 91 87 85 82 78 73 70 68 69 69 68 69 71 73 75 77 83 95 104 111 117 115 118 124 128 131 143 146 143 141 137 128 146 166 174 171 168 165 160 156
77 75 84 91 86 82 81 80 77 73 68 66 66 65 64 63 62 61 61 63 67 73 82 111 119 132 132 135 148 164 171 164 159 148 145 169 185 193 188 181 177 174 171
77 71 81 90 87 84 80 79 76 74 71 66 64 63 62 60 58 56 54 54 56 58 61 70 89 122 142 155 171 176 185 185 171 157 167 186 196 206 203 194 189 186 185
82 66 76 87 87 84 82 80 77 73 70 66 62 59 58 58 57 53 49 48 48 48 50 51 55 73 99 135 191 211 213 193 171 167 182 198 208 212 212 206 202 199 197
87 66 64 78 82 80 79 78 75 72 67 64 61 57 54 54 54 52 46 44 42 42 44 40 37 36 35 12 293 244 208 175 185 186 198 213 224 222 223 220 213 208 207
72 68 60 62 67 71 74 74 73 72 67 64 60 56 52 50 50 50 45 41 40 39 40 36 30 21 16 12 354 326 224 198 173 197 215 224 233 232 233 229 223 218 217
61 60 58 60 63 62 63 67 69 70 68 65 60 55 51 49 48 45 42 39 39 37 39 37 31 26 21 12 0 350 310 206 205 216 219 233 242 242 241 238 232 227 223
59 50 57 60 61 63 64 62 62 64 62 59 54 52 50 43 41 39 37 37 34 33 34 33 30 25 25 16 4 351 351 228 223 231 231 244 248 251 250 247 241 237 232
110 55 62 70 66 64 63 60 57 58 55 53 50 49 48 44 39 37 34 34 30 26 26 25 25 24 26 16 5 4 355 328 238 250 250 256 255 256 257 254 251 246 241
169 147 96 94 81 76 68 65 59 56 52 48 47 48 49 45 38 32 29 24 22 21 19 13 18 18 18 15 7 359 340 324 278 270 270 268 263 262 262 260 257 254 249
162 170 156 116 98 85 81 71 65 57 51 45 39 43 48 44 33 24 21 11 16 13 9 10 5 2 4 359 354 340 328 307 284 277 278 279 271 266 265 265 263 260 255
176 180 178 155 132 113 84 63 62 55 52 47 40 40 47 55 31 18 10 7 4 10 4 353 351 345 346 342 341 333 308 299 289 282 281 285 280 272 269 269 268 266 262
190 190 184 168 160 134 117 102 69 61 51 44 37 30 38 45 42 22 0 358 355 355 353 344 326 318 315 321 325 322 305 296 294 290 285 283 284 279 274 274 273 271 268
191 186 185 177 161 148 139 131 87 73 63 40 21 23 30 33 36 29 339 328 335 341 343 345 334 339 328 331 323 314 308 297 291 286 285 277 278 281 276 275 275 275 273
183 184 193 179 161 162 158 152 95 67 57 17 8 9 11 16 17 19 303 301 326 340 339 317 320 325 318 316 309 302 300 294 287 279 281 276 275 278 278 278 276 276 276
187 183 184 175 171 173 166 162 204 0 343 328 342 341 341 345 357 358 287 292 326 331 315 311 323 313 305 307 299 293 291 287 281 282 275 274 274 275 276 281 280 277 278
180 176 173 171 173 157 130 103 359 323 299 305 295 289 303 319 329 334 302 297 313 308 311 309 299 306 290 287 298 298 285 280 273 267 268 278 281 281 281 282 281 279 278
174 173 174 172 179 154 151 174 221 262 272 276 272 270 277 283 295 278 274 284 279 276 279 286 287 294 302 304 315 309 294 271 262 263 271 279 281 283 283 282 279 275 277
185 186 186 190 190 191 194 196 204 223 250 256 267 274 269 272 278 272 259 265 270 272 282 283 287 273 281 301 303 321 314 312 290 277 278 273 278 284 287 291 282 278 275
195 196 198 203 203 204 198 167 59 8 327 295 284 275 270 273 273 264 254 255 261 256 260 264 256 245 267 268 221 220 273 281 302 277 262 268 272 280 282 284 280 277 275
206 202 203 204 210 208 189 190 203 226 251 252 257 264 275 271 267 264 256 249 253 251 253 256 253 244 241 258 254 236 238 246 276 297 282 273 281 280 276 283 282 278 274
200 199 205 206 216 212 205 202 210 235 245 263 271 272 273 272 263 260 254 248 252 251 250 251 252 245 236 242 244 245 257 260 248 260 283 287 288 272 268 272 277 278 274
193 197 201 208 225 218 214 215 217 233 251 269 276 275 276 276 272 264 258 251 253 252 250 250 246 243 242 245 246 239 243 249 249 253 270 280 287 287 280 272 269 271 271
Height
1499 1500 1502 1503 1504 1505 1506 1506 1507 1507 1508 1509 1509 1510 1510 1511 1512 1512 1513 1513 1514 1514 1514 1515 1515 1515 1515 1516 1516 1516 1516 1516 1517 1517 1517 1518 1518 1518 1519 1519 1519 1519 1520
1499 1500 1502 1503 1504 1505 1505 1506 1507 1507 1508 1508 1509 1510 1510 1511 1511 1512 1512 1513 1513 1514 1514 1515 1515 1515 1515 1516 1516 1516 1516 1516 1517 1517 1517 1518 1518 1518 1519 1519 1519 1519 1520
1499 1500 1502 1503 1504 1505 1505 1506 1506 1507 1507 1508 1508 1509 1510 1510 1511 1511 1512 1512 1513 1513 1514 1514 1514 1515 1515 1515 1515 1515 1516 1516 1516 1517 1517 1518 1518 1518 1519 1519 1519 1519 1520
1499 1500 1502 1503 1504 1504 1505 1506 1506 1507 1507 1507 1508 1508 1509 1510 1510 1511 1511 1512 1512 1512 1513 1513 1513 1514 1514 1514 1515 1515 1515 1515 1516 1516 1517 1517 1518 1518 1518 1519 1519 1519 1519
1499 1500 1501 1502 1503 1504 1505 1505 1506 1506 1507 1507 1507 1508 1508 1509 1509 1510 1510 1511 1511 1511 1512 1512 1512 1513 1513 1513 1514 1514 1514 1515 1515 1516 1516 1516 1517 1517 1518 1518 1518 1518 1518
1499 1500 1501 1502 1503 1503 1504 1505 1505 1505 1506 1506 1506 1507 1507 1508 1508 1508 1509 1509 1510 1510 1510 1511 1511 1511 1511 1512 1512 1513 1513 1514 1514 1514 1515 1515 1516 1516 1517 1517 1517 1517 1517
1499 1500 1501 1502 1502 1503 1503 1504 1504 1504 1505 1505 1505 1506 1506 1506 1507 1507 1507 1508 1508 1508 1509 1509 1509 1509 1510 1510 1511 1511 1512 1512 1512 1513 1513 1514 1514 1515 1515 1516 1516 1516 1516
1499 1500 1501 1501 1502 1502 1502 1503 1503 1503 1504 1504 1504 1504 1505 1505 1505 1506 1506 1506 1506 1507 1507 1507 1508 1508 1508 1508 1509 1509 1510 1510 1510 1511 1511 1512 1512 1513 1513 1514 1514 1514 1514
1498 1499 1500 1500 1501 1501 1501 1502 1502 1502 1502 1502 1503 1503 1503 1503 1504 1504 1504 1504 1505 1505 1505 1505 1505 1506 1506 1506 1507 1507 1507 1508 1508 1509 1509 1510 1510 1511 1511 1512 1512 1512 1512
1498 1498 1499 1499 1500 1500 1500 1501 1501 1501 1501 1501 1501 1502 1502 1502 1502 1502 1502 1502 1503 1503 1503 1503 1503 1503 1504 1504 1504 1505 1505 1505 1506 1506 1506 1507 1508 1508 1508 1509 1509 1509 1509
1496 1497 1498 1498 1499 1499 1499 1500 1500 1500 1500 1500 1500 1500 1500 1500 1500 1500 1500 1500 1501 1501 1501 1501 1501 1501 1501 1501 1502 1502 1502 1502 1503 1503 1504 1504 1505 1505 1506 1506 1506 1506 1506
1495 1496 1497 1497 1498 1498 1498 1499 1499 1499 1499 1499 1499 1499 1499 1499 1499 1499 1499 1499 1499 1499 1499 1499 1499 1498 1498 1498 1499 1499 1499 1499 1499 1500 1500 1501 1501 1502 1502 1502 1502 1503 1503
1494 1495 1496 1496 1497 1497 1497 1497 1498 1498 1498 1498 1497 1497 1497 1497 1497 1497 1497 1497 1497 1496 1496 1496 1496 1496 1495 1495 1495 1496 1496 1496 1496 1496 1496 1497 1497 1498 1498 1499 1499 1499 1499
1492 1493 1494 1495 1496 1496 1496 1496 1496 1496 1496 1496 1495 1495 1495 1495 1495 1494 1494 1494 1494 1494 1493 1493 1493 1492 1492 1492 1492 1492 1492 1492 1492 1492 1492 1493 1493 1493 1494 1494 1494 1494 1495
1490 1492 1493 1493 1494 1495 1495 1495 1495 1494 1494 1494 1493 1493 1493 1492 1492 1492 1492 1491 1491 1491 1491 1490 1490 1489 1489 1489 1489 1488 1488 1489 1488 1488 1488 1488 1488 1488 1489 1490 1490 1490 1490
1488 1490 1491 1491 1492 1493 1493 1493 1493 1493 1492 1492 1491 1491 1491 1490 1490 1489 1489 1489 1488 1488 1488 1487 1487 1486 1486 1485 1485 1485 1484 1484 1484 1484 1484 1483 1484 1483 1484 1484 1484 1484 1484
1486 1487 1488 1489 1490 1491 1491 1491 1491 1491 1490 1490 1489 1489 1488 1488 1487 1487 1487 1486 1486 1485 1485 1484 1484 1483 1482 1481 1481 1481 1480 1480 1480 1479 1479 1479 1479 1478 1478 1479 1479 1479 1479
1484 1485 1486 1487 1488 1489 1489 1489 1489 1489 1488 1488 1487 1487 1486 1485 1485 1484 1484 1483 1483 1482 1481 1481 1480 1479 1478 1477 1476 1476 1476 1475 1475 1475 1474 1474 1474 1473 1473 1473 1473 1473 1473
1481 1482 1483 1485 1485 1486 1486 1486 1486 1486 1486 1486 1485 1484 1484 1483 1482 1481 1480 1480 1480 1479 1478 1477 1476 1475 1474 1473 1472 1471 1471 1470 1470 1470 1469 1469 1469 1468 1467 1467 1467 1467 1467
1478 1479 1481 1482 1483 1483 1484 1484 1484 1484 1483 1483 1482 1482 1481 1480 1479 1478 1477 1477 1476 1476 1475 1474 1473 1472 1471 1469 1468 1466 1466 1465 1465 1464 1464 1464 1463 1463 1462 1461 1461 1461 1460
1474 1476 1477 1478 1479 1480 1480 1480 1480 1480 1480 1480 1479 1479 1478 1477 1476 1475 1474 1473 1473 1472 1471 1470 1469 1468 1467 1466 1463 1461 1460 1460 1459 1459 1459 1458 1458 1457 1457 1456 1455 1455 1454
1470 1472 1474 1475 1476 1477 1477 1478 1478 1477 1477 1477 1476 1475 1475 1474 1473 1472 1471 1470 1469 1468 1468 1467 1466 1464 1463 1463 1461 1457 1454 1453 1453 1453 1453 1452 1452 1451 1451 1450 1449 1449 1448
1467 1469 1471 1472 1473 1474 1475 1475 1474 1474 1473 1473 1472 1471 1471 1470 1469 1468 1467 1466 1465 1464 1463 1462 1462 1460 1459 1459 1459 1457 1454 1449 1447 1445 1445 1446 1446 1445 1444 1444 1443 1442 1442
1463 1466 1468 1469 1470 1471 1471 1471 1471 1470 1469 1469 1468 1467 1467 1466 1465 1464 1463 1462 1461 1460 1459 1458 1457 1456 1455 1454 1454 1453 1452 1449 1446 1440 1438 1439 1440 1439 1438 1437 1436 1436 1435
1460 1463 1464 1466 1467 1468 1468 1468 1467 1466 1466 1465 1464 1463 1462 1462 1461 1460 1459 1457 1456 1455 1454 1453 1452 1451 1450 1449 1448 1447 1446 1445 1443 1440 1433 1431 1431 1431 1431 1431 1430 1429 1428
1457 1459 1461 1462 1463 1464 1464 1464 1463 1462 1462 1460 1459 1458 1457 1456 1455 1455 1453 1452 1450 1449 1448 1447 1446 1445 1444 1443 1442 1441 1440 1439 1437 1436 1431 1427 1425 1423 1424 1424 1423 1422 1421